Location: Houston
(29.7631°N, 95.3631°W)
Time: 11:37:08
(UTC-05:00)

UNISAT 6 - Pass Details

Date: 20 September 2021
Orbit: 606 x 687 km, 97.7° (Epoch: 27 October)

Event Time Altitude Azimuth Distance (km) Brightness Sun altitude
Rises 20:57:50 0° 358° (N) 3,058 ? -21.8°
Reaches altitude 10° 21:00:18 10° 348° (NNW) 2,139 ? -22.4°
Maximum altitude 21:04:22 30° 287° (WNW) 1,217 ? -23.2°
Drops below altitude 10° 21:08:24 10° 227° (SW) 2,115 ? -24.1°
Sets 21:10:50 0° 216° (SW) 3,017 ? -24.6°
